User: anonymous   Login
Location: Vancouver
(49.2500°N, 123.1330°W)
Time: 14:50:45
(UTC-08:00)
Language:

AO-27 - Orbit

View from above orbital plane
View from above orbital plane
View from above satellite
View from above satellite

Ground track
Ground track

The orbit data is extracted from the following two-line orbital elements,

1 22825U 93061C   17324.50445898 +.00000001 +00000-0 +18343-4 0  9992
2 22825 098.8345 292.1725 0007523 231.3421 128.7088 14.30013841259475
Epoch (UTC): 20 November 2017 12:06:25
Eccentricity: 0.0007523
inclination: 98.8345°
perigee height: 786 km
apogee height: 797 km
right ascension of ascending node: 292.1725°
argument of perigee: 231.3421°
revolutions per day: 14.30013841
mean anomaly at epoch: 128.7088°
orbit number at epoch: 25947

The dashed part of the orbit path shows where the satellite is in the earth's shadow,  

DLR